#timestamp,LO_Frequency,Hit,StdDev 
1543143615.7,286047004.9,N
1543143635.6,286047003.3,N
1543143655.4,286047005.7,Y
1543143675.3,286047001.3,P
1543143695.1,286047001.8,N
1543143696.0,286047001.8,N
1543143715.8,286047004.2,Y
1543143735.7,286047002.4,P
1543143755.5,286047002.5,P
1543143775.3,286047001.4,P
1543143795.2,286047001.5,Y
1543143815.0,286047002.4,P
1543143815.9,286047002.4,P
1543143835.8,286047002.3,P
1543143855.6,286047000.3,N
1543143875.4,286047000.4,N
1543143895.3,286047000.6,N
1543143915.1,286046998.7,N
1543143935.9,286046998.1,N
1543143955.7,286047000.7,N
1543143975.5,286047000.9,N
1543143995.4,286047000.5,N
1543144015.2,286047000.2,N
1543144035.0,286047002.3,N
1543144035.9,286047002.3,N
1543144055.8,286047002.7,N
1543144075.6,286047000.3,N
1543144095.5,286047002.5,N
1543144115.3,286047001.6,N
1543144135.1,286047002.0,N
1543144155.9,286047001.8,N
1543144175.7,286047003.4,N
1543144195.5,286047003.5,N
1543144215.4,286047001.5,N
1543144235.2,286047003.7,N
1543144255.1,286047003.9,N
1543144256.0,286047003.9,N
1543144275.8,286047003.8,N
1543144295.6,286047003.9,N
1543144315.5,286047004.1,N
1543144335.3,286047004.1,N
1543144355.1,286047003.8,N
1543144375.9,286047001.3,N
1543144395.7,286047001.9,N
1543144415.6,286047001.5,N
1543144435.4,286047004.1,N
1543144455.2,286047003.7,N
1543144475.1,286047004.2,N
1543144476.0,286047004.2,N
1543144495.8,286047004.2,Y
1543144515.7,286047001.5,P
1543144535.5,286047004.2,P
1543144555.3,286047003.2,N
1543144575.2,286047001.9,N
1543144595.9,286046999.8,N
1543144615.7,286047002.3,N
1543144635.6,286046999.9,N
1543144655.4,286047002.3,N
1543144675.3,286047002.8,N
1543144695.1,286047001.3,N
1543144696.0,286047001.3,N
1543144715.8,286047001.3,N
1543144735.7,286047002.6,N
1543144755.5,286047002.1,N
1543144775.3,286047001.6,N
1543144795.2,286046999.7,N
1543144815.0,286047002.2,N
1543144815.9,286047002.2,N
1543144835.8,286047001.5,N
1543144855.6,286047003.8,Y
1543144875.4,286047000.9,P
1543144895.3,286047000.1,N
1543144915.1,286047002.6,P
1543144935.9,286047000.2,N
1543144955.7,286047001.0,N
1543144975.5,286047001.0,N
1543144995.4,286047000.4,N
1543145015.2,286046999.0,N
1543145035.0,286047000.5,N
1543145035.9,286047000.5,N
1543145055.8,286047000.5,N
1543145075.6,286047000.4,N
1543145095.5,286047000.4,N
1543145115.3,286046998.1,N
1543145135.1,286046998.9,N
1543145155.9,286046999.5,N
1543145175.7,286046999.1,N
1543145195.6,286046998.9,N
1543145215.4,286046998.8,N
1543145235.2,286046998.5,N
1543145255.1,286046998.7,N
1543145256.0,286046998.7,N
1543145275.8,286046998.9,N
1543145295.6,286046996.5,Y
1543145315.5,286046996.7,P
1543145335.3,286046994.9,P
1543145355.2,286046998.4,N
1543145375.9,286046998.1,N
1543145395.7,286046998.1,N
1543145415.6,286046998.2,N
1543145435.4,286046998.3,N
1543145455.2,286046996.7,N
1543145475.1,286046996.7,N
1543145476.0,286046996.7,N
1543145495.8,286046996.7,N
1543145515.7,286046999.2,N
1543145535.5,286046999.4,N
1543145555.3,286046999.2,N
1543145575.2,286046997.1,N
1543145595.0,286046996.7,N
1543145595.9,286046996.7,N
1543145615.8,286046999.0,N
1543145635.6,286046998.8,N
1543145655.4,286046999.2,N
1543145675.3,286046999.5,N
1543145695.1,286046997.0,N
1543145715.8,286046999.6,N
1543145735.7,286046999.3,N
1543145755.5,286046997.3,N
1543145775.4,286046997.9,N
1543145795.2,286046995.7,Y
1543145815.0,286046998.3,P
1543145815.9,286046998.3,P
1543145835.8,286046998.1,P
1543145855.6,286046998.1,Y
1543145875.5,286047002.3,P
1543145895.3,286047000.6,N
1543145915.1,286046998.9,N
1543145935.9,286046998.2,N
1543145955.7,286046998.6,N
1543145975.5,286046998.6,N
1543145995.4,286046999.4,N
1543146015.2,286047001.2,N
1543146035.1,286047001.2,N
1543146036.0,286047001.2,N
1543146055.8,286046998.2,N
1543146075.6,286046998.5,N
1543146095.5,286046999.6,N
1543146115.3,286046997.2,N
1543146135.2,286046999.6,N
1543146155.9,286046996.9,N
1543146175.7,286046996.7,N
1543146225.6,286046999.5,E
1543146235.5,286046998.3,N
1543146255.4,286046996.6,P
1543146275.2,286046999.6,N
1543146295.0,286046997.0,N
1543146295.9,286046997.0,N
1543146315.8,286046997.2,N
1543146335.6,286046997.5,N
1543146355.4,286046995.4,Y
1543146375.3,286047000.9,P
1543146395.1,286046999.0,N
1543146415.9,286046998.5,N
1543146435.7,286046999.0,N
1543146455.5,286046996.9,N
1543146475.4,286046996.9,N
1543146495.2,286046997.2,N
1543146515.0,286046997.3,N
1543146516.0,286046997.3,N
1543146535.8,286046997.0,N
1543146555.6,286046997.5,N
1543146575.5,286046997.5,N
1543146595.3,286046995.4,Y
1543146615.1,286046996.9,P
1543146635.9,286046998.5,P
1543146655.7,286046998.3,N
1543146675.6,286046998.3,N
1543146695.4,286047000.7,N
1543146715.2,286046998.7,N
1543146735.1,286047000.6,N
1543146736.0,286047000.6,N
1543146755.8,286046998.3,N
1543146775.6,286046996.6,N
1543146795.5,286046996.9,N
1543146815.3,286046997.6,N
1543146835.2,286046997.1,N
1543146855.9,286046997.6,N
1543146875.7,286046997.6,N
1543146895.6,286046995.4,Y
1543146915.4,286046996.5,P
1543146935.3,286046999.1,N
1543146955.1,286046999.0,N
1543146956.0,286046999.0,N
1543146975.8,286046997.3,N
1543146995.7,286046996.8,Y
1543147015.5,286046999.4,P
1543147035.3,286046999.2,N
1543147055.2,286046998.6,N
1543147075.0,286046998.4,Y
1543147075.9,286046998.4,P
1543147095.8,286047001.2,P
1543147115.6,286047001.2,N
1543147135.4,286047001.2,N
1543147155.3,286047001.0,N
1543147175.1,286047001.0,N
1543147195.9,286046998.5,N
